Location: Chateh
(58.6667°N, 118.6000°W)
Time: 17:24:21
(UTC+00:00)

Gurwin Techsat 1B - Pass Details

Date: 09 December 2023
Orbit: 810 x 813 km, 98.9° (Epoch: 21 February)

Event Time Altitude Azimuth Distance (km) Brightness Sun altitude
Rises 11:43:18 0° 17° (NNE) 3,353 12.2 -35.2°
Reaches altitude 10° 11:45:39 10° 18° (NNE) 2,418 11.4 -34.9°
Enters shadow 11:47:31 23° 19° (NNE) 1,702 10.5 -34.7°
